JP7FSO Minamiyanome JP current weather conditions

sailwx.info

Wind from 249

Air temperature 28.9° C
Dewpoint 24.7° C

Last reported at 2020-Aug-15 07:45 UTC.
Time now 2020-Aug-15 08:30 UTC

Location: N 37°48' E 140°27'.
View on Google Maps.

See reports from other nearby stations

  
Tides and Currents Weather Stations Pressure Air Temp Water Temp Dewpoint Dewpoint Depression Visibility Wind Speed Wind Dir Waves Ship Positions
date/time (UTC)wind fromknots sea level pressurealtimeterstation pressurevisibilityair tempwater tempwave heightnotes
2020-Aug-15 07:45 249 28.9
2020-Aug-15 07:30 249 0 28.9
2020-Aug-15 07:00 249 28.3
2020-Aug-15 06:15 252 31.7
2020-Aug-15 05:46 252 33.9
2020-Aug-15 05:16 257 0 36.1
2020-Aug-15 04:46 339 0 34.4
2020-Aug-15 04:30 354 0 34.4
2020-Aug-15 04:01 358 0 34.4
2020-Aug-15 03:46 033 1 34.4
2020-Aug-15 03:16 068 2 33.9
2020-Aug-15 03:00 223 0 33.3
2020-Aug-15 02:31 243 0 33.3
2020-Aug-15 02:15 244 33.9
2020-Aug-15 01:46 240 0 34.4
2020-Aug-15 01:16 181 0 35.0
2020-Aug-15 01:00 151 0 34.4
2020-Aug-15 00:46 144 33.3
2020-Aug-15 00:30 144 32.2
2020-Aug-15 00:16 144 31.1
2020-Aug-15 00:00 144 30.0
2020-Aug-14 23:30 144 27.2
2020-Aug-14 23:00 143 26.1
2020-Aug-14 22:30 143 25.0
2020-Aug-14 22:01 143 24.4
2020-Aug-14 21:30 143 23.9
2020-Aug-14 21:00 143 23.9
2020-Aug-14 20:31 143 23.3
2020-Aug-14 20:15 143 23.3
2020-Aug-14 20:01 143 23.3
2020-Aug-14 19:45 143 23.3
2020-Aug-14 19:15 143 23.3
2020-Aug-14 19:00 143 23.9
2020-Aug-14 18:32 143 23.9
2020-Aug-14 18:15 143 23.9
2020-Aug-14 17:47 143 23.9
2020-Aug-14 17:30 143 23.9
2020-Aug-14 17:00 143 24.4
2020-Aug-14 16:30 143 24.4
2020-Aug-14 16:00 143 24.4
2020-Aug-14 15:15 143 25.0
2020-Aug-14 14:47 143 25.0
2020-Aug-14 14:30 143 25.0
2020-Aug-14 14:00 143 25.0
2020-Aug-14 13:31 143 25.6
2020-Aug-14 13:15 143 25.6
2020-Aug-14 12:45 143 25.6
2020-Aug-14 12:30 143 25.6
2020-Aug-14 12:01 143 25.6
2020-Aug-14 11:45 143 26.1
2020-Aug-14 11:16 143 26.1
2020-Aug-14 11:00 143 26.1
2020-Aug-14 10:31 143 26.1
2020-Aug-14 10:01 143 26.1
2020-Aug-14 09:45 143 26.7
2020-Aug-14 09:16 143 27.2
2020-Aug-14 08:45 143 27.8
2020-Aug-14 08:30 143 27.8
2020-Aug-14 08:00 145 28.3
2020-Aug-14 07:30 231 29.4
2020-Aug-14 07:01 235 30.6
2020-Aug-14 06:31 241 31.7
2020-Aug-14 06:01 243 32.8
2020-Aug-14 05:45 243 33.3
2020-Aug-14 05:17 243 32.2
2020-Aug-14 05:01 243 32.2
2020-Aug-14 04:31 243 32.2
2020-Aug-14 04:16 246 32.2
2020-Aug-14 03:47 247 0 31.1
2020-Aug-14 03:30 247 31.1
2020-Aug-14 03:15 247 31.1
2020-Aug-14 02:46 245 32.2
2020-Aug-14 02:15 245 33.9
2020-Aug-14 02:00 245 34.4
2020-Aug-14 01:47 245 34.4
2020-Aug-14 01:30 245 34.4
2020-Aug-14 01:16 245 33.9
2020-Aug-14 01:00 245 33.3
2020-Aug-14 00:46 245 32.8
2020-Aug-14 00:01 245 30.0
2020-Aug-13 23:00 245 26.7
2020-Aug-13 22:31 245 25.6
2020-Aug-13 22:01 245 24.4
2020-Aug-13 21:45 245 23.3
2020-Aug-13 21:32 245 23.3
2020-Aug-13 21:15 245 22.8
2020-Aug-13 21:03 245 22.8
2020-Aug-13 20:45 245 22.8
2020-Aug-13 20:16 245 22.8
2020-Aug-13 20:00 245 22.8
2020-Aug-13 19:47 245 22.8
2020-Aug-13 19:30 245 23.3
2020-Aug-13 19:02 245 23.3
2020-Aug-13 18:45 245 23.3
2020-Aug-13 18:32 245 23.3
2020-Aug-13 18:15 245 23.3
2020-Aug-13 17:45 245 23.9
2020-Aug-13 17:31 245 23.9
2020-Aug-13 17:16 245 23.9
2020-Aug-13 16:30 245 24.4
2020-Aug-13 16:01 245 25.0
2020-Aug-13 15:45 245 25.0
2020-Aug-13 15:16 245 25.6
2020-Aug-13 14:31 245 26.1
2020-Aug-13 14:01 245 26.7
2020-Aug-13 13:45 245 26.7
2020-Aug-13 13:30 245 26.7
2020-Aug-13 13:15 245 26.7
2020-Aug-13 13:00 245 27.2
2020-Aug-13 12:45 245 27.2
2020-Aug-13 12:30 245 27.8
2020-Aug-13 12:15 245 27.8
2020-Aug-13 12:00 245 28.3
2020-Aug-13 11:45 245 28.3
2020-Aug-13 11:31 245 28.3
2020-Aug-13 11:16 245 28.9
2020-Aug-13 11:00 245 28.9
2020-Aug-13 10:46 245 28.9
2020-Aug-13 10:30 245 28.9
2020-Aug-13 10:16 245 29.4
2020-Aug-13 10:00 245 30.0
2020-Aug-13 09:46 245 30.0
2020-Aug-13 09:31 245 30.6
2020-Aug-13 09:15 245 30.6
2020-Aug-13 09:00 245 31.1
2020-Aug-13 08:45 245 32.2
2020-Aug-13 08:30 245 32.8
2020-Aug-13 08:15 245 33.9
2020-Aug-13 08:00 245 0 34.4